OH2MUI Weather Reports


time (UTC)temp
C
wind
direction
speed
KPH
gust
KPH
rain 1hr
cm
rain 24hr
cm
rain mn
cm
humidity
%
barometer
mb
20260506111524 10 270 4.8 16.1 0.00 0.00 0.00 40 1015.0
20260506105621 10 303 4.8 12.9 0.00 0.00 0.00 42 1014.8
20260506103814 10 248 4.8 12.9 0.00 0.00 0.00 45 1014.8
20260506102129 10 278 3.2 12.9 0.00 0.00 0.00 43 1014.7
20260506100409 10 251 4.8 19.3 0.00 0.00 0.00 42 1014.8
20260506094509 10 218 4.8 12.9 0.00 0.00 0.00 45 1014.6
20260506092811 10 311 3.2 9.7 0.00 0.00 0.00 48 1014.6
20260506092804 10 311 3.2 9.7 0.00 0.00 0.00 48 1014.6
20260506091104 9 212 1.6 6.4 0.00 0.00 0.00 49 1014.5
20260506085239 10 270 4.8 9.7 0.00 0.00 0.00 48 1014.5
20260506083344 9 303 1.6 8.0 0.00 0.00 0.00 49 1014.4
20260506081709 8 286 1.6 9.7 0.00 0.00 0.00 52 1014.4
20260506072047 8 310 3.2 9.7 0.00 0.00 0.00 58 1014.0
20260506070349 7 225 1.6 6.4 0.00 0.00 0.00 63 1014.0
20260506060744 5 230 3.2 6.4 0.00 0.00 0.00 81 1014.0
20260506051258 3 244 4.8 9.7 0.00 0.00 0.00 88 1013.2
20260506043544 2 284 1.6 4.8 0.00 0.00 0.00 91 1012.9
20260506041710 1 283 1.6 6.4 0.00 0.00 0.00 92 1012.7
20260506041704 1 283 1.6 6.4 0.00 0.00 0.00 92 1012.7
20260506035924 1 239 0.0 4.8 0.00 0.00 0.00 93 1012.5
20260506035919 1 239 0.0 4.8 0.00 0.00 0.00 93 1012.5
20260506034049 0 349 0.0 6.4 0.00 0.00 0.00 92 1012.3
20260506032329 0 5 0.0 3.2 0.00 0.00 0.00 92 1012.0
20260506030611 0 331 0.0 4.8 0.00 0.00 0.00 93 1011.9
20260506024625 0 53 1.6 4.8 0.00 0.00 0.00 91 10.1
20260506024619 0 53 1.6 4.8 0.00 0.00 0.00 91 1011.8
20260506022739 0 90 0.0 3.2 0.00 0.00 0.00 90 1011.6
20260506021059 0 57 0.0 3.2 0.00 0.00 0.00 89 1011.5
20260506015129 0 48 0.0 4.8 0.00 0.00 0.00 88 1011.3
20260506013519 0 90 0.0 4.8 0.00 0.00 0.00 86 1011.1
20260506011612 0 45 1.6 4.8 0.00 0.00 0.00 85 1011.1
20260506011604 0 45 1.6 4.8 0.00 0.00 0.00 85 1011.1
20260506005758 1 50 0.0 1.6 0.00 0.00 0.00 82 1011.0
20260506004032 1 45 0.0 3.2 0.00 0.00 0.00 81 1010.8
20260506002149 1 219 0.0 4.8 0.00 0.00 0.00 80 1010.7
20260506000330 1 225 0.0 3.2 0.00 0.00 0.00 80 1010.6
20260505234603 1 199 1.6 4.8 0.00 0.00 0.00 79 1010.4
20260505232724 2 227 1.6 6.4 0.00 0.00 0.00 79 1010.4
20260505230909 2 229 1.6 6.4 0.00 0.00 0.00 78 1010.4
20260505225134 2 225 1.6 6.4 0.00 0.00 0.00 78 1010.3
20260505223304 2 270 0.0 4.8 0.00 0.00 0.00 76 1010.2
20260505221314 2 222 1.6 9.7 0.00 0.00 0.00 76 1010.1
20260505215454 3 225 3.2 9.7 0.00 0.00 0.00 75 1010.0
20260505215449 3 225 3.2 9.7 0.00 0.00 0.00 75 1010.0
20260505213659 3 230 3.2 9.7 0.00 0.00 0.00 74 1010.0
20260505211725 3 225 4.8 0.0 0.00 0.00 0.00 73 1009.9
20260505211719 3 225 4.8 12.9 0.00 0.00 0.00 73 1009.9
20260505205934 3 237 4.8 12.9 0.00 0.08 0.08 72 1009.7
20260505203952 4 227 1.6 4.8 0.00 0.08 0.08 71 1009.4
20260505202135 4 220 1.6 8.0 0.00 0.08 0.08 69 1009.2
20260505200349 5 222 4.8 9.7 0.00 0.08 0.08 68 1009.0
20260505194444 5 225 0.0 4.8 0.00 0.08 0.08 65 1008.9
20260505192524 5 225 4.8 12.9 0.00 0.08 0.08 65 1008.8
20260505190719 5 240 1.6 8.0 0.00 0.08 0.08 64 1008.7
20260505184839 6 222 1.6 6.4 0.00 0.08 0.08 64 1008.5
20260505183124 6 230 4.8 9.7 0.00 0.08 0.08 61 108.3
20260505183119 6 230 4.8 9.7 0.00 0.08 0.08 61 1008.3
20260505181459 6 228 4.8 12.9 0.00 0.08 0.08 58 1008.1
20260505175612 7 231 6.4 16.1 0.00 0.08 0.08 58 1008.1
20260505173858 8 236 4.8 14.5 0.00 0.08 0.08 57 1007.8
20260505173852 8 236 4.8 14.5 0.00 0.08 0.08 57 1007.8
20260505172119 8 229 6.4 12.9 0.00 0.08 0.08 55 1007.6
20260505170329 8 227 6.4 17.7 0.00 0.08 0.08 54 1007.5
20260505164430 8 231 4.8 9.7 0.00 0.08 0.08 55 1007.3
20260505162509 8 218 4.8 14.5 0.00 0.08 0.08 55 1007.2
20260505160557 8 219 9.7 22.5 0.00 0.08 0.08 54 1007.2
20260505160553 8 219 9.7 22.5 0.00 0.08 0.08 54 1007.2
20260505153052 9 225 9.7 22.5 0.00 0.08 0.08 54 1007.0
20260505151411 8 245 4.8 12.9 0.00 0.08 0.08 53 1006.9
20260505140126 9 241 8.0 25.7 0.00 0.08 0.08 49 1006.6
20260505140124 9 241 8.0 25.7 0.00 0.08 0.08 49 1006.6
20260505124732 10 231 6.4 16.1 0.00 0.08 0.08 50 1006.1
20260505123117 10 243 4.8 12.9 0.00 0.08 0.08 54 1005.9
20260505121444 9 225 6.4 16.1 0.00 0.08 0.08 52 1005.8
20260505115612 9 237 9.7 24.1 0.00 0.08 0.08 52 1005.8
20260505113814 9 249 3.2 14.5 0.00 0.08 0.08 59 1005.6